FW9036 Weather Reports


time (UTC)temp
F
wind
direction
speed
knots
gust
knots
rain 1hr
in
rain 24hr
in
rain mn
in
humidity
%
barometer
mb
20260503002219 63 18 0.0 3.5 0.00 0.29 0.29 90 1014.1
20260503001715 63 23 3.5 3.5 0.00 0.29 0.29 89 1014.0
20260503001212 63 290 2.6 3.5 0.00 0.29 0.29 89 1013.9
20260503000710 63 16 0.0 2.6 0.00 0.29 0.29 89 1013.9
20260503000207 63 23 1.7 4.3 0.00 0.29 0.29 89 1013.7
20260502235704 63 24 1.7 4.3 0.00 0.29 0.29 89 1013.7
20260502235202 63 48 1.7 4.3 0.00 0.29 0.29 89 1013.7
20260502234657 63 45 1.7 7.8 0.00 0.29 0.29 89 1013.5
20260502234155 63 35 2.6 4.3 0.00 0.29 0.29 89 1013.4
20260502233651 63 305 1.7 11.3 0.00 0.29 0.29 89 1013.4
20260502233148 63 358 2.6 6.1 0.00 0.29 0.29 89 1013.1
20260502232643 63 68 1.7 5.2 0.00 0.29 0.29 90 1013.0
20260502232141 63 5 0.0 5.2 0.00 0.29 0.29 90 1013.1
20260502231637 63 343 2.6 5.2 0.00 0.29 0.29 90 1013.1
20260502231135 64 9 1.7 4.3 0.00 0.29 0.29 90 1012.6
20260502230634 64 66 0.9 6.1 0.00 0.29 0.29 90 1012.8
20260502230132 64 315 2.6 7.0 0.00 0.29 0.29 90 1012.6
20260502225627 65 5 1.7 6.1 0.00 0.29 0.29 89 1012.7
20260502225125 65 348 0.9 5.2 0.00 0.29 0.29 89 1012.4
20260502224621 65 355 0.9 4.3 0.00 0.29 0.29 89 1012.2
20260502224117 65 40 1.7 4.3 0.00 0.29 0.29 89 1012.1
20260502223615 65 30 1.7 6.1 0.00 0.29 0.29 89 1012.1
20260502223114 65 318 2.6 7.0 0.00 0.29 0.29 88 1012.0
20260502222611 66 343 0.0 5.2 0.00 0.29 0.29 88 1011.8
20260502222107 66 304 5.2 6.1 0.00 0.29 0.29 87 1011.9
20260502221602 67 3 1.7 10.4 0.00 0.29 0.29 86 1011.6
20260502221100 68 296 0.0 9.6 0.00 0.29 0.29 84 1011.5
20260502220555 69 53 0.0 5.2 0.00 0.29 0.29 82 1011.2
20260502220052 70 336 3.5 6.1 0.00 0.29 0.29 82 1011.3
20260502215550 70 287 1.7 3.5 0.00 0.29 0.29 82 1011.0
20260502215046 70 69 0.9 4.3 0.00 0.29 0.29 82 1011.2
20260502214543 71 42 2.6 2.6 0.00 0.29 0.29 82 1011.0
20260502214041 70 57 1.7 6.1 0.00 0.29 0.29 82 1010.8
20260502213537 69 48 0.0 4.3 0.00 0.29 0.29 83 1010.6
20260502213036 69 358 2.6 6.1 0.00 0.29 0.29 83 1011.0
20260502212534 70 68 0.0 3.5 0.00 0.29 0.29 83 1010.8
20260502212031 70 32 2.6 5.2 0.00 0.29 0.29 82 1010.7
20260502211527 71 299 1.7 2.6 0.00 0.29 0.29 82 1010.7
20260502211024 70 300 0.0 5.2 0.00 0.29 0.29 82 1010.7
20260502210521 70 300 0.9 4.3 0.00 0.29 0.29 83 1010.7
20260502210018 69 334 0.9 2.6 0.00 0.29 0.29 83 1010.8
20260502205515 69 334 2.6 5.2 0.00 0.29 0.29 84 1010.7
20260502205012 69 327 3.5 5.2 0.00 0.29 0.29 84 1010.8
20260502204509 69 23 0.9 5.2 0.00 0.29 0.29 85 1010.6
20260502204007 69 299 0.0 3.5 0.00 0.29 0.29 86 1010.7
20260502203503 68 54 0.0 3.5 0.00 0.29 0.29 87 1010.5
20260502203000 68 324 0.0 2.6 0.00 0.29 0.29 88 1011.0
20260502202456 68 324 1.7 1.7 0.00 0.29 0.29 89 1011.3
20260502201955 68 41 0.0 4.3 0.00 0.29 0.29 89 1011.1
20260502201450 67 338 2.6 5.2 0.00 0.29 0.29 89 1011.2
20260502200947 67 299 2.6 4.3 0.00 0.29 0.29 90 1011.2
20260502200443 67 303 1.7 3.5 0.00 0.29 0.29 90 1011.1
20260502195941 67 346 0.0 3.5 0.00 0.29 0.29 90 1011.3
20260502195438 66 321 2.6 3.5 0.00 0.29 0.29 91 1011.1
20260502194934 66 270 0.0 4.3 0.00 0.29 0.29 91 1011.3
20260502194431 66 263 0.0 1.7 0.00 0.29 0.29 91 1011.2
20260502193927 66 297 2.6 2.6 0.00 0.29 0.29 91 1011.1
20260502193424 66 9 3.5 4.3 0.00 0.29 0.29 90 1011.0
20260502192919 67 97 0.0 3.5 0.00 0.29 0.29 90 1011.2
20260502192417 67 15 4.3 5.2 0.00 0.29 0.29 90 1011.2
20260502191914 67 357 1.7 7.0 0.00 0.29 0.29 90 1011.2
20260502191412 68 48 1.7 2.6 0.00 0.29 0.29 90 1011.0
20260502190909 68 97 0.9 2.6 0.00 0.29 0.29 90 1011.2
20260502190406 68 342 4.3 4.3 0.00 0.29 0.29 91 1010.8
20260502185902 69 270 1.7 4.3 0.00 0.29 0.29 91 1010.8
20260502185357 68 297 0.9 4.3 0.00 0.29 0.29 91 1010.8
20260502184855 68 340 2.6 2.6 0.00 0.29 0.29 91 1010.9
20260502184350 68 324 2.6 2.6 0.00 0.29 0.29 91 1010.7
20260502183847 68 278 0.0 0.9 0.00 0.29 0.29 91 1010.9
20260502183343 68 311 1.7 1.7 0.00 0.29 0.29 91 1010.4
20260502182838 68 311 1.7 1.7 0.00 0.29 0.29 91 1010.9
20260502182334 68 270 0.9 2.6 0.00 0.29 0.29 92 1010.8
20260502181831 68 75 0.0 1.7 0.00 0.29 0.29 92 1010.7
20260502181330 68 8 0.0 0.9 0.00 0.29 0.29 92 1010.7
20260502180827 68 90 0.0 1.7 0.00 0.29 0.29 92 1010.5
20260502180324 68 71 0.9 2.6 0.00 0.29 0.29 92 1010.6
20260502170243 66 115 0.0 2.6 0.00 0.29 0.29 93 1011.3
20260502164231 66 305 0.0 2.6 0.05 0.29 0.29 92 1011.5
20260502163726 66 0 1.7 6.1 0.05 0.29 0.29 92 1011.4
20260502163223 67 59 1.7 6.1 0.02 0.29 0.29 92 1011.6
20260502162720 67 9 2.6 4.3 0.00 0.28 0.28 92 1011.1
20260502162217 68 125 1.7 2.6 0.07 0.28 0.28 92 1010.9
20260502161714 68 327 1.7 2.6 0.12 0.28 0.28 92 1011.4
20260502161210 67 65 1.7 4.3 0.12 0.27 0.27 92 1010.8
20260502160709 68 326 1.7 1.7 0.07 0.26 0.26 92 1011.2
20260502160208 68 95 1.7 3.5 0.00 0.25 0.25 92 1010.9
20260502152121 66 80 1.7 2.6 0.05 0.25 0.25 91 1011.4
20260502151618 65 90 1.7 1.7 0.05 0.25 0.25 91 1011.6
20260502151115 65 109 0.9 1.7 0.05 0.24 0.24 91 1012.2
20260502150613 65 90 0.0 1.7 0.07 0.24 0.24 91 1011.8
20260502150109 65 54 0.0 0.0 0.14 0.24 0.24 90 1011.9
20260502130457 68 90 0.0 0.0 0.00 0.00 0.00 83 1011.8
20260502123440 67 81 0.0 0.9 0.00 0.00 0.00 82 1011.7
20260502122937 67 8 0.0 0.0 0.00 0.00 0.00 82 1012.0
20260502122433 67 90 0.0 0.9 0.00 0.00 0.00 82 1011.7
20260502121932 67 8 0.0 0.0 0.00 0.00 0.00 82 1011.7
20260502121428 66 114 0.0 0.0 0.00 0.00 0.00 82 1011.8
20260502120926 66 114 0.0 0.9 0.00 0.00 0.00 82 1011.5
20260502120422 67 97 0.9 0.9 0.00 0.00 0.00 82 1011.4
20260502115919 66 165 0.0 0.0 0.00 0.00 0.00 82 1011.3
20260502115416 66 57 1.7 1.7 0.00 0.00 0.00 82 1011.4
20260502114912 66 90 0.0 0.9 0.00 0.00 0.00 82 1011.5
20260502114409 66 66 0.0 1.7 0.00 0.00 0.00 82 1011.7
20260502113907 66 294 0.0 2.6 0.00 0.00 0.00 82 1011.7
20260502113404 66 77 0.0 0.9 0.00 0.00 0.00 83 1011.8
20260502112903 66 45 1.7 2.6 0.00 0.00 0.00 83 1011.5
20260502112400 66 90 0.0 0.9 0.00 0.00 0.00 84 1011.8
20260502111857 66 354 0.0 2.6 0.00 0.00 0.00 84 1011.9
20260502111354 66 23 0.0 1.7 0.00 0.00 0.00 85 1011.6
20260502110851 66 0 0.9 1.7 0.00 0.00 0.00 85 1011.6
20260502110349 66 331 0.9 0.9 0.00 0.00 0.00 86 1011.5
20260502105846 66 270 0.0 0.0 0.00 0.00 0.00 86 1011.4
20260502105343 66 81 0.0 0.0 0.00 0.00 0.00 86 1011.4
20260502104841 66 54 0.0 0.0 0.00 0.00 0.00 86 1011.3
20260502104338 66 54 0.0 0.0 0.00 0.00 0.00 86 1011.1
20260502103835 66 29 0.0 0.9 0.00 0.00 0.00 86 1010.9
20260502103333 66 90 0.0 0.0 0.00 0.00 0.00 86 1010.7
20260502102830 66 90 0.0 0.0 0.00 0.00 0.00 86 1010.8
20260502102326 66 81 0.0 1.7 0.00 0.00 0.00 86 1011.1
20260502101824 66 49 0.0 1.7 0.00 0.00 0.00 86 1010.7
20260502101322 66 90 0.0 1.7 0.00 0.00 0.00 86 1010.6
20260502100820 66 77 0.9 0.9 0.00 0.00 0.00 86 1010.4
20260502100319 66 99 0.0 1.7 0.00 0.00 0.00 86 1010.5
20260502091253 67 106 0.0 1.7 0.00 0.00 0.00 84 1010.1
20260502090750 67 77 0.0 2.6 0.00 0.00 0.00 84 1009.9
20260502090247 66 60 0.0 1.7 0.00 0.00 0.00 84 1010.4
20260502071147 68 90 0.0 0.0 0.00 0.00 0.00 84 1012.5
20260502070646 68 36 0.0 1.7 0.00 0.00 0.00 84 1012.6
20260502070143 68 74 0.0 1.7 0.00 0.00 0.00 84 1012.6
20260502065641 68 66 0.0 0.0 0.00 0.00 0.00 84 1012.4
20260502065138 68 74 0.0 0.9 0.00 0.00 0.00 85 1012.3
20260502064637 68 112 0.0 0.0 0.00 0.00 0.00 85 1012.1
20260502064134 68 112 0.0 0.0 0.00 0.00 0.00 85 1012.3
20260502063632 68 112 0.0 0.0 0.00 0.00 0.00 84 1012.2
20260502063129 68 90 0.0 0.9 0.00 0.00 0.00 84 1012.3
20260502062626 68 140 0.0 0.0 0.00 0.00 0.00 84 1012.7
20260502062124 68 126 0.0 0.9 0.00 0.00 0.00 84 1012.3
20260502061622 68 103 0.0 0.9 0.00 0.00 0.00 84 1012.7
20260502061119 68 99 0.0 0.0 0.00 0.00 0.00 84 1012.8
20260502060619 68 180 0.0 0.0 0.00 0.00 0.00 84 1013.2
20260502060116 68 180 0.0 0.0 0.00 0.00 0.00 84 1013.3
20260502055614 68 180 0.0 0.0 0.00 0.00 0.00 84 1013.2
20260502055112 68 180 0.0 0.0 0.00 0.00 0.00 83 1013.0
20260502054611 68 180 0.0 0.9 0.00 0.00 0.00 83 1013.0
20260502054107 68 151 0.0 0.0 0.00 0.00 0.00 83 1013.4
20260502053604 68 151 0.0 0.0 0.00 0.00 0.00 83 1013.1
20260502053102 68 151 0.0 0.9 0.00 0.00 0.00 83 1013.1
20260502052600 68 151 0.0 0.0 0.00 0.00 0.00 82 1013.3
20260502052058 68 151 0.0 0.0 0.00 0.00 0.00 82 1013.0
20260502051556 69 157 0.0 0.0 0.00 0.00 0.00 82 1013.0
20260502051053 69 157 0.0 0.0 0.00 0.00 0.00 82 1013.2
20260502050549 69 157 0.0 0.9 0.00 0.00 0.00 81 1013.2
20260502050046 69 90 0.0 0.0 0.00 0.00 0.00 81 1013.3
20260502045543 69 114 0.0 0.9 0.00 0.00 0.00 80 1013.3
20260502045040 70 99 0.0 1.7 0.00 0.00 0.00 80 1013.1
20260502044536 70 97 0.0 1.7 0.00 0.00 0.00 80 1013.1
20260502044033 70 106 0.0 0.9 0.00 0.00 0.00 79 1013.2
20260502043531 71 81 0.0 0.0 0.00 0.00 0.00 79 1013.4
20260502043027 70 90 0.0 0.0 0.00 0.00 0.00 79 1013.3
20260502042522 71 82 0.0 0.9 0.00 0.00 0.00 79 1013.4
20260502042020 71 114 0.0 0.0 0.00 0.00 0.00 79 1013.5
20260502041518 71 114 0.0 0.9 0.00 0.00 0.00 79 1013.4
20260502041014 71 352 0.0 0.0 0.00 0.00 0.00 79 1013.2
20260502040511 71 352 0.0 0.0 0.00 0.00 0.00 78 1013.6
20260502040008 71 352 0.0 0.0 0.00 0.02 0.02 78 1013.5
20260502035503 70 74 0.0 0.9 0.00 0.02 0.02 78 1013.6
20260502035001 70 74 0.0 0.0 0.00 0.02 0.02 78 1013.4
20260502034459 71 74 0.0 0.0 0.00 0.02 0.02 78 1013.6
20260502033958 71 74 0.0 0.0 0.00 0.02 0.02 78 1013.4
20260502033455 71 74 0.0 0.9 0.00 0.02 0.02 78 1013.2
20260502032951 71 106 0.0 0.9 0.00 0.02 0.02 78 1013.5
20260502032448 71 74 0.0 0.0 0.00 0.02 0.02 78 1013.4
20260502031945 71 74 0.0 0.0 0.00 0.02 0.02 78 1013.4
20260502031443 71 109 0.0 0.0 0.00 0.02 0.02 78 1013.0
20260502030941 71 74 0.0 0.9 0.00 0.02 0.02 78 1013.1
20260502030439 71 114 0.0 0.0 0.00 0.02 0.02 77 1013.4
20260502025937 71 114 0.9 0.9 0.00 0.02 0.02 77 1012.9
20260502025433 71 54 0.0 2.6 0.00 0.02 0.02 77 1013.1
20260502024931 71 111 0.0 1.7 0.00 0.02 0.02 77 1013.4
20260502024430 71 106 0.0 0.0 0.00 0.02 0.02 76 1013.5
20260502023928 71 165 0.0 0.9 0.00 0.02 0.02 76 1013.7
20260502023425 71 90 0.0 0.0 0.00 0.02 0.02 76 1013.6
20260502022922 71 90 0.0 1.7 0.00 0.02 0.02 76 1013.8
20260502022418 71 90 0.0 1.7 0.00 0.02 0.02 75 1013.8
20260502021915 71 69 0.0 1.7 0.00 0.02 0.02 75 1013.4
20260502021413 71 90 0.0 1.7 0.00 0.02 0.02 75 1013.8
20260502020910 71 105 0.0 1.7 0.00 0.02 0.02 75 1013.8
20260502020408 71 69 0.0 0.9 0.00 0.02 0.02 74 1014.2
20260502015904 71 60 0.0 1.7 0.00 0.02 0.02 74 1013.9
20260502015401 71 114 0.0 0.9 0.00 0.02 0.02 75 1013.9
20260502014858 71 99 0.0 0.9 0.00 0.02 0.02 75 1013.8
20260502014355 71 346 0.0 1.7 0.00 0.02 0.02 75 1013.3
20260502013851 71 180 0.9 1.7 0.00 0.02 0.02 76 1012.3
20260502013347 71 77 3.5 3.5 0.00 0.02 0.02 75 1011.9
20260502012844 71 16 0.0 2.6 0.00 0.02 0.02 76 1013.2
20260502012342 71 71 0.0 1.7 0.00 0.02 0.02 79 1013.4
20260502011839 71 123 0.0 5.2 0.00 0.02 0.02 81 1013.0
20260502011335 71 53 1.7 2.6 0.00 0.02 0.02 83 1012.6
20260502010832 72 83 0.9 2.6 0.00 0.02 0.02 84 1013.1
20260502010329 72 55 1.7 4.3 0.00 0.02 0.02 84 1013.1
20260502005825 73 106 0.9 3.5 0.00 0.02 0.02 84 1013.2
20260502005324 72 63 2.6 4.3 0.00 0.02 0.02 84 1013.1
20260502004821 73 75 0.9 2.6 0.00 0.02 0.02 84 1013.2
20260502004316 73 81 0.0 3.5 0.00 0.02 0.02 84 1012.8
20260502003815 73 90 0.0 2.6 0.00 0.02 0.02 83 1013.1
20260502003311 74 90 0.9 3.5 0.00 0.02 0.02 83 1013.0
20260502002807 73 80 1.7 3.5 0.00 0.02 0.02 82 1013.0